GFSNIL_con_mucape_021.txt.gz
CAPE
1421 1312 1067 546 483 457 388 107 32 0 0 0 0 9 116 96 102 70 97 155 76 17
1132 803 542 408 299 203 102 0 0 0 0 0 0 71 124 126 127 85 101 128 132 41
522 407 330 270 165 42 3 0 0 0 0 0 13 58 90 86 75 44 78 97 123 101
186 173 154 94 17 0 0 0 0 0 0 0 17 22 35 37 39 12 90 63 132 154
71 54 10 0 0 0 0 0 0 0 1 12 11 14 36 36 68 65 108 94 148 141
10 7 0 0 0 0 0 0 0 0 9 42 25 38 37 78 68 83 101 99 68 119
34 35 1 0 0 0 0 0 0 27 34 65 92 84 86 72 73 63 104 125 90 129
90 41 3 0 0 0 0 1 26 53 51 29 30 56 50 24 33 58 60 123 107 114
92 12 7 3 0 0 5 14 51 46 24 0 32 67 54 43 45 54 51 88 70 50
36 0 21 10 1 10 13 25 45 32 9 0 1 62 67 61 29 35 64 44 53 30
2 1 21 22 10 7 25 34 41 20 0 0 19 107 83 47 26 42 23 37 42 14
0 0 1 2 9 10 18 30 26 7 0 0 36 134 112 58 19 35 33 35 13 12
1 0 0 0 0 6 0 7 14 6 0 2 30 108 63 23 16 33 10 28 14 5
23 0 0 0 0 0 7 0 3 0 0 0 16 53 35 21 2 1 0 0 0 1

GFSNIL_con_mucape_024.txt.gz
CAPE
1365 1329 1217 1139 840 437 484 517 429 203 3 0 0 0 0 0 2 6 23 37 65 22
1351 1287 1101 546 381 363 378 209 62 0 0 0 0 0 19 55 77 73 65 66 73 31
1112 819 456 365 326 209 87 0 0 0 0 0 0 18 50 78 79 76 38 32 51 53
478 352 263 196 140 62 0 0 0 0 0 0 4 2 15 33 48 57 11 24 53 85
162 139 119 71 14 0 0 0 0 0 0 0 0 0 0 27 47 33 16 40 41 124
28 27 6 0 0 0 0 0 0 0 0 11 2 12 36 41 78 26 46 56 66 131
4 4 5 0 0 0 0 0 0 9 11 20 44 49 70 63 68 69 50 68 62 79
22 17 1 0 0 0 0 0 27 27 9 1 27 33 36 21 39 53 50 78 91 61
61 18 1 0 0 0 0 7 55 28 0 0 32 72 50 24 41 47 50 45 54 144
49 2 9 4 0 0 3 39 43 15 0 0 8 64 63 30 25 39 45 47 41 35
9 3 18 4 1 6 18 36 37 9 0 0 62 98 54 37 11 25 29 36 27 24
0 2 15 15 7 9 29 32 32 0 0 0 68 94 51 14 12 18 30 27 18 11
0 0 0 0 0 4 20 25 7 0 7 1 75 86 23 7 11 5 8 12 0 2
1 0 0 0 5 0 0 0 0 0 0 0 43 72 12 0 2 0 1 1 6 5

GFSNIL_con_mucape_030.txt.gz
CAPE
2253 2175 2230 2167 2114 2006 1965 1940 2041 2007 1877 1736 1671 1321 1011 684 548 665 769 826 826 566
2207 2286 2281 2339 2130 1853 1885 1883 1816 1794 1726 1332 916 765 823 402 671 740 1010 1042 918 1017
2325 2265 2142 1858 1583 1544 1597 1480 1539 1356 1017 684 526 572 768 587 824 942 1634 846 865 979
1840 1726 1621 1582 1554 1509 1439 1236 898 626 511 347 419 625 958 959 834 767 953 776 754 771
1469 1403 1417 1362 1289 1038 805 521 320 203 132 197 486 722 738 700 593 567 548 709 571 584
1377 1352 1250 1027 762 521 405 226 131 189 257 221 393 615 776 629 567 174 480 662 627 528
1083 1028 892 625 394 245 160 231 250 223 164 314 499 605 759 458 710 740 651 690 701 643
583 549 426 314 266 240 144 114 221 326 365 531 697 250 628 594 727 260 596 751 729 759
303 340 410 449 402 174 243 398 404 461 330 530 175 8 9 173 288 639 604 711 624 688
264 281 327 184 226 181 471 453 601 505 283 530 613 7 3 14 100 245 255 285 344 209
130 123 117 33 136 425 393 682 734 544 545 717 47 20 9 24 126 43 45 103 156 169
101 98 156 48 325 482 636 765 623 507 608 686 183 10 7 18 39 18 17 25 34 50
114 32 55 130 270 457 628 579 338 515 643 100 112 8 6 2 28 19 20 7 15 15
217 153 205 306 391 273 424 326 507 488 590 176 104 24 11 1 9 25 26 14 14 16

GFSNIL_con_mucape_033.txt.gz
CAPE
2693 2466 2689 2032 1661 1837 1791 2170 2400 2372 2706 2117 1858 1525 1622 1417 1130 1162 695 811 1037 668
2412 3288 2341 3089 3190 2308 2946 2366 2150 2311 1970 1728 1442 1463 1517 892 734 1078 1210 921 984 1139
3110 3053 2644 3045 2256 2424 2817 2581 2106 1809 1661 1416 1253 1063 940 825 649 893 1419 1414 1098 1113
2302 2270 2324 2140 2186 1972 2125 1560 1318 1198 1110 955 720 615 825 862 706 720 1066 1056 837 815
2322 2200 2358 1684 1509 1329 1268 1116 906 710 531 329 308 621 760 758 661 729 809 877 900 550
1920 1793 2093 1378 1223 999 767 504 342 211 174 206 378 639 795 715 728 780 559 721 893 463
1775 1647 1203 979 792 526 324 210 216 238 202 164 252 497 716 710 523 697 330 1067 1009 441
1042 916 672 503 376 262 252 222 181 227 491 378 720 447 787 788 698 651 719 875 708 820
290 223 297 331 697 305 140 556 709 678 491 780 175 0 4 454 665 360 457 705 722 748
289 297 480 441 483 192 946 968 972 808 391 826 71 0 0 95 440 599 619 716 833 680
118 199 283 380 167 1077 1039 798 801 555 787 890 0 0 1 31 243 239 298 294 510 569
122 124 83 92 387 1055 677 757 771 696 759 814 23 0 10 40 44 6 8 94 200 346
137 146 178 292 772 858 525 596 502 695 746 173 45 0 1 21 5 7 13 7 13 34
136 147 554 955 1087 843 372 580 868 701 668 356 101 3 1 0 10 15 23 7 5 11

GFSNIL_con_mucape_036.txt.gz
CAPE
2298 3369 3815 2619 1899 1622 1408 1836 1742 1716 1556 1787 1862 2095 1881 1617 1234 1232 1110 1174 855 868
3048 3561 2870 2442 1813 1592 1501 1495 1719 2064 1993 2181 1886 1542 1394 1291 1288 1295 1177 1106 1232 834
3163 3359 2623 2310 1943 2190 2309 2066 1972 2109 1945 1788 1503 1349 1501 1437 1145 1279 1247 1051 855 877
3044 2841 2923 2631 2373 2446 2307 2130 1908 1767 1581 1422 1418 1426 1322 1246 975 991 991 883 549 873
1856 1789 1961 1924 1777 1882 1965 1846 1612 1428 1112 988 954 1156 1175 955 788 764 927 805 630 732
1960 1491 1351 1633 1751 1751 1745 1599 962 877 768 537 647 744 1146 992 803 701 671 553 398 656
1657 1361 1399 1536 1517 1258 1029 872 732 679 434 601 635 831 834 605 620 692 342 525 381 472
1230 1176 1278 1147 1025 917 747 619 470 730 513 851 389 570 734 1054 933 580 271 471 516 328
1124 934 1007 880 386 883 872 807 356 541 620 636 218 107 29 399 797 482 471 246 423 185
528 496 321 372 368 897 1003 748 548 488 649 502 0 0 0 184 491 833 415 583 364 481
313 310 339 326 514 979 933 1060 997 895 677 80 0 0 7 125 388 650 543 575 405 497
273 251 219 404 673 983 793 728 842 863 884 80 0 2 37 51 30 94 175 75 147 172
147 179 397 404 826 886 816 931 810 673 586 1 0 0 1 3 4 10 10 26 30 31
133 178 340 580 821 723 913 751 719 748 469 112 7 10 7 1 19 15 17 7 26 10